This is the latest recevied weather packets stored in our database for station/object KC1TWD. If no packets are shown the sender has not sent any weather packets the latest 10 day(s).
| Time | Temp. | Humidity | Pressure | Rain* | Wind** | Luminosity | Snow |
|---|---|---|---|---|---|---|---|
| 1777992296 | 24.44° C | 44% | 1007.8 hPa | 0 mm | - | - | - |
| 1777991993 | 24.44° C | 43% | 1007.9 hPa | 0 mm | - | - | - |
| 1777991691 | 24.44° C | 43% | 1007.9 hPa | 0 mm | - | - | - |
| 1777991388 | 23.89° C | 45% | 1007.9 hPa | 0 mm | - | - | - |
| 1777991085 | 23.33° C | 45% | 1007.9 hPa | 0 mm | - | - | - |
| 1777990782 | 23.33° C | 46% | 1007.8 hPa | 0 mm | - | - | - |
| 1777990479 | 22.78° C | 46% | 1007.8 hPa | 0 mm | - | - | - |
| 1777989873 | 22.78° C | 47% | 1008.1 hPa | 0 mm | - | - | - |
| 1777989569 | 22.22° C | 49% | 1008.1 hPa | 0 mm | - | - | - |
| 1777989266 | 21.67° C | 48% | 1008.2 hPa | 0 mm | - | - | - |
| 1777988962 | 20.56° C | 50% | 1008.1 hPa | 0 mm | - | - | - |
| 1777988659 | 21.11° C | 50% | 1008.1 hPa | 0 mm | - | - | - |
| 1777988355 | 21.11° C | 49% | 1008.2 hPa | 0 mm | - | - | - |
| 1777988053 | 20.56° C | 50% | 1008.1 hPa | 0 mm | - | - | - |
| 1777987748 | 20° C | 52% | 1008.2 hPa | 0 mm | - | - | - |
| 1777987446 | 20° C | 52% | 1008.1 hPa | 0 mm | - | - | - |
| 1777987143 | 19.44° C | 51% | 1008 hPa | 0 mm | - | - | - |
| 1777986840 | 18.89° C | 54% | 1008.2 hPa | 0 mm | - | - | - |
| 1777986537 | 18.89° C | 54% | 1008 hPa | 0 mm | - | - | - |
| 1777986235 | 18.33° C | 58% | 1008.1 hPa | 0 mm | - | - | - |
| 1777985932 | 18.33° C | 56% | 1008.1 hPa | 0 mm | - | - | - |
| 1777985630 | 17.78° C | 57% | 1008 hPa | 0 mm | - | - | - |
| 1777985326 | 17.78° C | 58% | 1008.1 hPa | 0 mm | - | - | - |
| 1777985023 | 17.78° C | 58% | 1008.1 hPa | 0 mm | - | - | - |
| 1777984719 | 17.78° C | 57% | 1008 hPa | 0 mm | - | - | - |
* Rain latest hour (hover to see other rain measurements)
** Current wind speed in m/s (hover to see current wind gust speed)